| time (UTC) | temp C | wind direction | speed KPH | gust KPH | rain 1hr cm | rain 24hr cm | rain mn cm | humidity % | barometer mb |
| 20260504120126 | 11 | 245 | 0.0 | 0.0 | 0.00 | 0.00 | 0.00 | 57 | 1013.7 |
| 20260504110546 | 4 | 175 | 0.0 | 0.0 | 0.00 | 0.00 | 0.00 | 80 | 1012.5 |
| 20260504100421 | 2 | 176 | 0.0 | 0.0 | 0.00 | 0.00 | 0.00 | 81 | 1012.1 |
| 20260504081601 | 1 | 178 | 0.0 | 0.0 | 0.00 | 0.00 | 0.00 | 84 | 1011.5 |
| 20260504081030 | 1 | 179 | 0.0 | 0.0 | 0.00 | 0.00 | 0.00 | 84 | 1011.6 |
| 20260504080457 | 1 | 179 | 0.0 | 0.0 | 0.00 | 0.00 | 0.00 | 84 | 1011.6 |
| 20260504070406 | 1 | 178 | 0.0 | 0.0 | 0.00 | 0.00 | 0.00 | 86 | 1011.5 |
| 20260504050338 | 2 | 266 | 0.0 | 0.0 | 0.00 | 0.00 | 0.00 | 79 | 1011.6 |
| 20260504045837 | 2 | 266 | 0.0 | 0.0 | 0.00 | 0.00 | 0.00 | 80 | 1011.5 |
| 20260504045337 | 2 | 266 | 0.0 | 0.0 | 0.00 | 0.00 | 0.00 | 79 | 1011.4 |
| 20260504044805 | 2 | 266 | 0.0 | 0.0 | 0.00 | 0.00 | 0.00 | 80 | 1011.4 |
| 20260504044233 | 2 | 266 | 0.0 | 0.0 | 0.00 | 0.00 | 0.00 | 80 | 1011.4 |
| 20260504043702 | 2 | 266 | 0.0 | 0.0 | 0.00 | 0.00 | 0.00 | 81 | 1011.4 |
| 20260504043203 | 2 | 266 | 0.0 | 0.0 | 0.00 | 0.00 | 0.00 | 80 | 1011.5 |
| 20260504042937 | 2 | 266 | 0.0 | 0.0 | 0.00 | 0.00 | 0.00 | 80 | 1011.4 |
| 20260504042702 | 2 | 266 | 0.0 | 0.0 | 0.00 | 0.00 | 0.00 | 81 | 1011.5 |
| 20260504041702 | 2 | 266 | 0.0 | 0.0 | 0.00 | 0.00 | 0.00 | 80 | 1011.5 |
| 20260504041130 | 2 | 266 | 0.0 | 0.0 | 0.00 | 0.00 | 0.00 | 80 | 1011.5 |
| 20260504040557 | 2 | 266 | 0.0 | 0.0 | 0.00 | 0.00 | 0.00 | 79 | 1011.5 |
| 20260504040025 | 2 | 266 | 0.0 | 0.0 | 0.00 | 0.00 | 0.00 | 78 | 1011.5 |
| 20260504035419 | 2 | 266 | 0.0 | 0.0 | 0.00 | 0.00 | 0.00 | 78 | 1011.4 |
| 20260504035150 | 3 | 266 | 0.0 | 0.0 | 0.00 | 0.00 | 0.00 | 78 | 1011.4 |
| 20260504034348 | 3 | 266 | 0.0 | 0.0 | 0.00 | 0.00 | 0.00 | 78 | 1011.4 |
| 20260504034048 | 3 | 266 | 0.0 | 0.0 | 0.00 | 0.00 | 0.00 | 77 | 1011.6 |
| 20260504033245 | 3 | 266 | 0.0 | 0.0 | 0.00 | 0.00 | 0.00 | 77 | 1011.7 |
| 20260504032713 | 3 | 266 | 0.0 | 0.0 | 0.00 | 0.00 | 0.00 | 76 | 1011.7 |
| 20260504032142 | 3 | 266 | 0.0 | 0.0 | 0.00 | 0.00 | 0.00 | 75 | 1011.7 |
| 20260504031611 | 4 | 266 | 0.0 | 0.0 | 0.00 | 0.00 | 0.00 | 75 | 1011.7 |
| 20260504031039 | 4 | 266 | 0.0 | 0.0 | 0.00 | 0.00 | 0.00 | 75 | 1011.7 |
| 20260504030506 | 5 | 266 | 0.0 | 0.0 | 0.00 | 0.00 | 0.00 | 75 | 1011.6 |
| 20260504025936 | 5 | 266 | 0.0 | 0.0 | 0.00 | 0.00 | 0.00 | 75 | 1011.7 |
| 20260504025404 | 5 | 266 | 0.0 | 0.0 | 0.00 | 0.00 | 0.00 | 76 | 1011.8 |
| 20260504025029 | 5 | 266 | 0.0 | 0.0 | 0.00 | 0.00 | 0.00 | 75 | 1011.6 |
| 20260504024227 | 5 | 266 | 0.0 | 0.0 | 0.00 | 0.00 | 0.00 | 74 | 1011.6 |
| 20260504023727 | 4 | 266 | 0.0 | 0.0 | 0.00 | 0.00 | 0.00 | 72 | 1011.6 |
| 20260504023155 | 4 | 266 | 0.0 | 0.0 | 0.00 | 0.00 | 0.00 | 72 | 1011.7 |
| 20260504022623 | 5 | 266 | 0.0 | 0.0 | 0.00 | 0.00 | 0.00 | 72 | 1011.6 |
| 20260504022050 | 5 | 266 | 0.0 | 0.0 | 0.00 | 0.00 | 0.00 | 69 | 1011.6 |
| 20260504021517 | 5 | 266 | 0.0 | 0.0 | 0.00 | 0.00 | 0.00 | 69 | 1011.6 |
| 20260504020913 | 5 | 266 | 0.0 | 0.0 | 0.00 | 0.00 | 0.00 | 68 | 1011.6 |
| 20260504020413 | 5 | 266 | 0.0 | 0.0 | 0.00 | 0.00 | 0.00 | 68 | 1011.8 |
| 20260504020112 | 5 | 266 | 0.0 | 0.0 | 0.00 | 0.00 | 0.00 | 68 | 1011.7 |
| 20260504015813 | 5 | 266 | 0.0 | 0.0 | 0.00 | 0.00 | 0.00 | 68 | 1011.7 |
| 20260504014812 | 5 | 266 | 0.0 | 0.0 | 0.00 | 0.00 | 0.00 | 67 | 1011.7 |
| 20260504014240 | 5 | 266 | 0.0 | 0.0 | 0.00 | 0.00 | 0.00 | 67 | 1011.6 |
| 20260504013740 | 5 | 266 | 0.0 | 0.0 | 0.00 | 0.00 | 0.00 | 67 | 1011.6 |
| 20260504013209 | 5 | 266 | 0.0 | 0.0 | 0.00 | 0.00 | 0.00 | 66 | 1011.5 |
| 20260504012637 | 5 | 266 | 0.0 | 0.0 | 0.00 | 0.00 | 0.00 | 66 | 1011.5 |
| 20260504012106 | 5 | 266 | 0.0 | 0.0 | 0.00 | 0.00 | 0.00 | 66 | 1011.6 |
| 20260504011534 | 5 | 266 | 0.0 | 0.0 | 0.00 | 0.00 | 0.00 | 65 | 1011.7 |
| 20260504011000 | 6 | 266 | 0.0 | 0.0 | 0.00 | 0.00 | 0.00 | 64 | 1011.6 |
| 20260504010700 | 6 | 266 | 0.0 | 0.0 | 0.00 | 0.00 | 0.00 | 64 | 1011.5 |
| 20260504010128 | 6 | 266 | 0.0 | 0.0 | 0.00 | 0.00 | 0.00 | 64 | 1011.5 |
| 20260504005325 | 6 | 266 | 0.0 | 0.0 | 0.00 | 0.00 | 0.00 | 62 | 1011.4 |
| 20260504004754 | 6 | 266 | 0.0 | 0.0 | 0.00 | 0.00 | 0.00 | 61 | 1011.5 |
| 20260504004223 | 7 | 266 | 0.0 | 0.0 | 0.00 | 0.00 | 0.00 | 59 | 1011.6 |
| 20260504003651 | 7 | 266 | 0.0 | 0.0 | 0.00 | 0.00 | 0.00 | 58 | 1011.5 |
| 20260504003119 | 7 | 266 | 0.0 | 0.0 | 0.00 | 0.00 | 0.00 | 57 | 1011.6 |
| 20260504002546 | 7 | 266 | 0.0 | 0.0 | 0.00 | 0.00 | 0.00 | 56 | 1011.5 |
| 20260504002013 | 8 | 266 | 0.0 | 0.0 | 0.00 | 0.00 | 0.00 | 56 | 1011.5 |
| 20260504001441 | 8 | 266 | 0.0 | 0.0 | 0.00 | 0.00 | 0.00 | 55 | 1011.5 |
| 20260504000910 | 8 | 266 | 0.0 | 0.0 | 0.00 | 0.00 | 0.00 | 56 | 1011.5 |
| 20260504000610 | 9 | 266 | 0.0 | 0.0 | 0.00 | 0.00 | 0.00 | 53 | 1011.5 |
| 20260503235839 | 9 | 266 | 0.0 | 0.0 | 0.00 | 0.00 | 0.00 | 51 | 1011.5 |
| 20260503235309 | 9 | 266 | 0.0 | 0.0 | 0.00 | 0.00 | 0.00 | 51 | 1011.6 |
| 20260503234739 | 10 | 266 | 0.0 | 0.0 | 0.00 | 0.00 | 0.00 | 52 | 1011.5 |
| 20260503234239 | 10 | 266 | 0.0 | 0.0 | 0.00 | 0.00 | 0.00 | 50 | 1011.5 |
| 20260503233739 | 10 | 266 | 0.0 | 0.0 | 0.00 | 0.00 | 0.00 | 49 | 1011.5 |
| 20260503233239 | 10 | 257 | 0.0 | 11.3 | 0.00 | 0.00 | 0.00 | 49 | 1011.6 |
| 20260503232739 | 10 | 257 | 0.0 | 11.3 | 0.00 | 0.00 | 0.00 | 48 | 1011.5 |
| 20260503232207 | 10 | 278 | 0.0 | 1.6 | 0.00 | 0.00 | 0.00 | 47 | 1011.6 |
| 20260503231637 | 11 | 245 | 1.6 | 11.3 | 0.00 | 0.00 | 0.00 | 47 | 1011.6 |
| 20260503231105 | 11 | 274 | 1.6 | 8.0 | 0.00 | 0.00 | 0.00 | 46 | 1011.6 |
| 20260503230531 | 11 | 263 | 1.6 | 9.7 | 0.00 | 0.00 | 0.00 | 45 | 1011.6 |
| 20260503225958 | 11 | 242 | 1.6 | 9.7 | 0.00 | 0.00 | 0.00 | 45 | 1011.6 |
| 20260503225458 | 11 | 282 | 4.8 | 20.9 | 0.00 | 0.00 | 0.00 | 45 | 1011.6 |
| 20260503224926 | 11 | 231 | 4.8 | 20.9 | 0.00 | 0.00 | 0.00 | 44 | 1011.6 |
| 20260503224354 | 11 | 224 | 1.6 | 14.5 | 0.00 | 0.00 | 0.00 | 44 | 1011.6 |
| 20260503223822 | 11 | 258 | 1.6 | 14.5 | 0.00 | 0.00 | 0.00 | 43 | 1011.6 |
| 20260503223521 | 11 | 249 | 1.6 | 14.5 | 0.00 | 0.00 | 0.00 | 42 | 1011.6 |
| 20260503222953 | 11 | 277 | 1.6 | 14.5 | 0.00 | 0.00 | 0.00 | 42 | 1011.4 |
| 20260503222149 | 12 | 247 | 1.6 | 14.5 | 0.00 | 0.00 | 0.00 | 41 | 1011.4 |
| 20260503221848 | 12 | 265 | 4.8 | 19.3 | 0.00 | 0.00 | 0.00 | 40 | 1011.4 |
| 20260503221045 | 12 | 263 | 4.8 | 19.3 | 0.00 | 0.00 | 0.00 | 41 | 1011.4 |
| 20260503220546 | 12 | 265 | 3.2 | 20.9 | 0.00 | 0.00 | 0.00 | 41 | 1011.4 |
| 20260503220012 | 12 | 246 | 1.6 | 20.9 | 0.00 | 0.00 | 0.00 | 39 | 1011.4 |
| 20260503215712 | 12 | 226 | 1.6 | 8.0 | 0.00 | 0.00 | 0.00 | 39 | 1011.3 |
| 20260503215140 | 12 | 272 | 4.8 | 22.5 | 0.00 | 0.00 | 0.00 | 39 | 1011.4 |
| 20260503214641 | 12 | 233 | 4.8 | 22.5 | 0.00 | 0.00 | 0.00 | 39 | 1011.4 |
| 20260503213839 | 12 | 260 | 3.2 | 14.5 | 0.00 | 0.00 | 0.00 | 39 | 1011.4 |
| 20260503213308 | 12 | 251 | 1.6 | 8.0 | 0.00 | 0.00 | 0.00 | 41 | 1011.3 |
| 20260503213039 | 12 | 125 | 1.6 | 14.5 | 0.00 | 0.00 | 0.00 | 41 | 1011.3 |
| 20260503212307 | 12 | 244 | 3.2 | 14.5 | 0.00 | 0.00 | 0.00 | 38 | 1011.2 |
| 20260503211807 | 12 | 217 | 3.2 | 17.7 | 0.00 | 0.00 | 0.00 | 38 | 1011.2 |
| 20260503211306 | 12 | 142 | 1.6 | 17.7 | 0.00 | 0.00 | 0.00 | 39 | 1011.2 |
| 20260503210807 | 12 | 182 | 1.6 | 12.9 | 0.00 | 0.00 | 0.00 | 39 | 1011.2 |
| 20260503210538 | 13 | 158 | 4.8 | 20.9 | 0.00 | 0.00 | 0.00 | 38 | 1011.2 |
| 20260503205735 | 13 | 236 | 4.8 | 20.9 | 0.00 | 0.00 | 0.00 | 36 | 1011.1 |
| 20260503205236 | 13 | 251 | 3.2 | 16.1 | 0.00 | 0.00 | 0.00 | 35 | 1011.2 |
| 20260503205006 | 13 | 205 | 3.2 | 16.1 | 0.00 | 0.00 | 0.00 | 36 | 1011.1 |
| 20260503204204 | 13 | 298 | 4.8 | 17.7 | 0.00 | 0.00 | 0.00 | 35 | 1011.1 |
| 20260503203703 | 13 | 276 | 6.4 | 17.7 | 0.00 | 0.00 | 0.00 | 35 | 1011.1 |
| 20260503203203 | 13 | 211 | 4.8 | 17.7 | 0.00 | 0.00 | 0.00 | 35 | 1011.1 |
| 20260503202703 | 13 | 242 | 3.2 | 16.1 | 0.00 | 0.00 | 0.00 | 35 | 1011.2 |
| 20260503202132 | 13 | 274 | 6.4 | 19.3 | 0.00 | 0.00 | 0.00 | 36 | 1011.2 |
| 20260503201828 | 13 | 227 | 9.7 | 22.5 | 0.00 | 0.00 | 0.00 | 35 | 1011.1 |
| 20260503201026 | 13 | 199 | 8.0 | 22.5 | 0.00 | 0.00 | 0.00 | 34 | 1011.4 |
| 20260503200755 | 13 | 281 | 6.4 | 20.9 | 0.00 | 0.00 | 0.00 | 35 | 1011.3 |
| 20260503195953 | 13 | 228 | 6.4 | 17.7 | 0.00 | 0.00 | 0.00 | 34 | 1011.2 |
| 20260503195452 | 13 | 216 | 6.4 | 20.9 | 0.00 | 0.00 | 0.00 | 36 | 1011.4 |
| 20260503195223 | 13 | 284 | 6.4 | 20.9 | 0.00 | 0.00 | 0.00 | 35 | 1011.4 |
| 20260503194420 | 13 | 274 | 8.0 | 29.0 | 0.00 | 0.00 | 0.00 | 36 | 1011.5 |
| 20260503193849 | 13 | 247 | 8.0 | 29.0 | 0.00 | 0.00 | 0.00 | 36 | 1011.5 |
| 20260503193316 | 13 | 259 | 6.4 | 25.7 | 0.00 | 0.00 | 0.00 | 34 | 1011.6 |
| 20260503192745 | 13 | 255 | 6.4 | 25.7 | 0.00 | 0.00 | 0.00 | 35 | 1011.6 |
| 20260503192214 | 13 | 222 | 4.8 | 17.7 | 0.00 | 0.00 | 0.00 | 35 | 1011.6 |
| 20260503191642 | 13 | 234 | 6.4 | 22.5 | 0.00 | 0.00 | 0.00 | 38 | 1011.7 |
| 20260503191341 | 13 | 262 | 4.8 | 17.7 | 0.00 | 0.00 | 0.00 | 35 | 1011.7 |
| 20260503190808 | 13 | 170 | 3.2 | 9.7 | 0.00 | 0.00 | 0.00 | 38 | 1011.8 |
| 20260503190004 | 12 | 255 | 6.4 | 20.9 | 0.00 | 0.00 | 0.00 | 37 | 1011.8 |
| 20260503185703 | 12 | 239 | 8.0 | 20.9 | 0.00 | 0.00 | 0.00 | 36 | 1011.7 |
| 20260503184900 | 12 | 239 | 9.7 | 24.1 | 0.00 | 0.00 | 0.00 | 36 | 1011.6 |
| 20260503184328 | 12 | 259 | 4.8 | 24.1 | 0.00 | 0.00 | 0.00 | 36 | 1011.9 |
| 20260503183756 | 12 | 328 | 3.2 | 16.1 | 0.00 | 0.00 | 0.00 | 39 | 1011.9 |
| 20260503183225 | 12 | 186 | 3.2 | 17.7 | 0.00 | 0.00 | 0.00 | 40 | 1011.8 |
| 20260503182653 | 11 | 266 | 4.8 | 25.7 | 0.00 | 0.00 | 0.00 | 38 | 1011.9 |
| 20260503182122 | 12 | 224 | 4.8 | 25.7 | 0.00 | 0.00 | 0.00 | 37 | 1012.1 |
| 20260503181549 | 12 | 191 | 4.8 | 27.4 | 0.00 | 0.00 | 0.00 | 38 | 1012.2 |
| 20260503181016 | 12 | 237 | 8.0 | 27.4 | 0.00 | 0.00 | 0.00 | 39 | 1012.3 |
| 20260503180445 | 12 | 274 | 8.0 | 24.1 | 0.00 | 0.00 | 0.00 | 38 | 1012.1 |
| 20260503175945 | 12 | 255 | 4.8 | 24.1 | 0.00 | 0.00 | 0.00 | 38 | 1012.1 |
| 20260503175413 | 11 | 290 | 3.2 | 27.4 | 0.00 | 0.00 | 0.00 | 39 | 1012.2 |
| 20260503174913 | 11 | 248 | 4.8 | 27.4 | 0.00 | 0.00 | 0.00 | 39 | 1012.3 |
| 20260503174413 | 12 | 236 | 3.2 | 24.1 | 0.00 | 0.00 | 0.00 | 40 | 1012.3 |
| 20260503173913 | 11 | 257 | 1.6 | 24.1 | 0.00 | 0.00 | 0.00 | 41 | 1012.3 |
| 20260503173343 | 11 | 82 | 3.2 | 16.1 | 0.00 | 0.00 | 0.00 | 42 | 1012.2 |
| 20260503172811 | 10 | 289 | 3.2 | 16.1 | 0.00 | 0.00 | 0.00 | 41 | 1011.9 |
| 20260503172542 | 10 | 237 | 4.8 | 24.1 | 0.00 | 0.00 | 0.00 | 43 | 1012.1 |
| 20260503171740 | 10 | 133 | 6.4 | 24.1 | 0.00 | 0.00 | 0.00 | 42 | 1012.1 |
| 20260503171207 | 11 | 154 | 6.4 | 20.9 | 0.00 | 0.00 | 0.00 | 39 | 1012.4 |
| 20260503170907 | 11 | 297 | 8.0 | 20.9 | 0.00 | 0.00 | 0.00 | 39 | 1012.4 |
| 20260503170334 | 11 | 301 | 8.0 | 20.9 | 0.00 | 0.00 | 0.00 | 40 | 1012.4 |
| 20260503150932 | 7 | 280 | 6.4 | 22.5 | 0.00 | 0.00 | 0.00 | 55 | 1012.3 |
| 20260503150200 | 6 | 260 | 3.2 | 22.5 | 0.00 | 0.00 | 0.00 | 51 | 1012.3 |
| 20260503130934 | 6 | 286 | 1.6 | 8.0 | 0.00 | 0.00 | 0.00 | 58 | 1012.7 |
| 20260503130401 | 6 | 248 | 1.6 | 19.3 | 0.00 | 0.00 | 0.00 | 59 | 1012.7 |